Find Otter

NORAD ID: 62623 Int'l Des: 2025-009 Owner: USNPS Country: US operational
LEOCIRCULARRETROGRADESSO

現在のビュー

3D地球を読み込み中...

About Otter

Otter (NORAD 62623) is a satellite launched Jan 14, 2025 by USNPS of US. It operates in LEO, CIRCULAR, RETROGRADE, SSO orbit with a mass of 10.00 kg.

次回通過

Passes for default location (London). Set your location on the main map for personalized predictions.

高度履歴

Loading altitude history...

軌道要素

1 62623U 25009Q 26194.16833249 .00006261 00000-0 21597-3 0 9995
2 62623 97.4033 276.2320 0004353 198.5261 161.5822 15.30333848 82896
Epoch: Jul 13, 2026 • Age: 22 hours

現在のステータス

高度 486.6 km
遠地点 / 近地点 N/A
速度 7.63 km/s
衛星直下点 57.00°N, 60.2°W
打ち上げ日 Jan 14, 2025
運用期間 1.4 years
タイプ other

技術仕様

分類 Payload
質量 10.00 kg
乾燥質量 10.00 kg
総質量 10.00 kg
長さ 0.30 m
直径 0.20 m
スパン 0.30 m
形状 Box+2 pan
製造者 USNPS
バスタイプ Cubesat 6U
フェーズステータス In Orbit
所有者/国 USNPS/US

Most Searched